Weather History for Fort Payne, AL

Change the Weather History Date:

Friday, January 11, 2013

  Actual Average (KRMG) Record (KRMG)
Temperature  
Mean Temperature 62 °F 41 °F  
Max Temperature 64 °F 52 °F 73 °F (2005)
Min Temperature 60 °F 30 °F 19 °F (1999)
Degree Days  
Heating Degree Days 3 24  
Month to date heating degree days 264  
Since 1 July heating degree days 1564  
Growing Degree Days 12 (Base 50)    
Moisture  
Dew Point 59 °F    
Average Humidity 86    
Maximum Humidity 94    
Minimum Humidity 73    
Precipitation  
Precipitation 0.26 in 0.15 in 1.81 in (2014)
Month to date precipitation 1.28  
Year to date precipitation 1.28  
Snow  
Snow 0.00 in - - ()
Month to date snowfall  
Since 1 July snowfall  
Snow Depth -    
Sea Level Pressure  
Sea Level Pressure 30.11 in    
Wind  
Wind Speed 6 mph (SSW)    
Max Wind Speed 10 mph    
Max Gust Speed 20 mph    
Visibility 7 miles    
Events Rain    
T = Trace of Precipitation, MM = Missing Value Source: NWS Daily Summary

Daily Weather History Graph

Daily Weather History Graph

Search for Another Location

Airport:

Trip Planner

Search our weather history database for the weather conditions in past years. The results will help you decide how hot, cold, wet, or windy it might be!

Date:

Astronomy

Jan. 11, 2013 Rise Set
Actual Time 6:49 AM CST 4:52 PM CST
Civil Twilight 6:22 AM CST 5:19 PM CST
Nautical Twilight 5:51 AM CST 5:50 PM CST
Astronomical Twilight 5:21 AM CST 6:21 PM CST
Moon 6:24 AM CST (1/11) 5:06 PM CST (1/11)
Length of Visible Light 10h 57m
Length of Day
10h 02m
Waning Crescent, 0% of the Moon is Illuminated
Jan 11
Waning Crescent
Jan 11
New
Jan 18
First Quarter
Jan 26
Full
Feb 3
Last Quarter

Hourly Weather History & Observations

Time (CST) Temp. Dew Point Humidity Pressure Visibility Wind Dir Wind Speed Gust Speed Precip Events Conditions
12:15 AM 64.4 °F 57.2 °F 77% 30.11 in 10.0 mi South 8.1 mph - N/A   Overcast
12:35 AM 64.4 °F 57.2 °F 77% 30.12 in 10.0 mi SSE 9.2 mph - N/A   Overcast
12:55 AM 64.4 °F 57.2 °F 77% 30.10 in 10.0 mi South 5.8 mph - N/A   Overcast
1:15 AM 64.4 °F 57.2 °F 77% 30.11 in 10.0 mi South 8.1 mph 17.3 mph N/A   Overcast
1:35 AM 64.4 °F 57.2 °F 77% 30.11 in 10.0 mi South 10.4 mph 18.4 mph N/A   Overcast
1:55 AM 64.4 °F 55.4 °F 73% 30.10 in 10.0 mi South 9.2 mph 19.6 mph N/A   Overcast
2:15 AM 64.4 °F 55.4 °F 73% 30.10 in 10.0 mi South 10.4 mph 16.1 mph N/A   Overcast
2:35 AM 64.4 °F 55.4 °F 73% 30.10 in 10.0 mi South 9.2 mph - N/A   Overcast
2:55 AM 64.4 °F 55.4 °F 73% 30.10 in 10.0 mi South 8.1 mph - N/A   Overcast
3:15 AM 64.4 °F 55.4 °F 73% 30.09 in 10.0 mi South 6.9 mph - N/A   Overcast
3:35 AM 64.4 °F 55.4 °F 73% 30.09 in 10.0 mi South 4.6 mph - N/A   Overcast
3:55 AM 64.4 °F 55.4 °F 73% 30.09 in 10.0 mi SSW 9.2 mph - N/A   Overcast
4:15 AM 64.4 °F 55.4 °F 73% 30.09 in 10.0 mi South 5.8 mph - N/A   Overcast
4:35 AM 64.4 °F 55.4 °F 73% 30.09 in 10.0 mi SSW 8.1 mph - N/A   Overcast
4:55 AM 64.4 °F 55.4 °F 73% 30.08 in 10.0 mi SSW 5.8 mph - N/A   Overcast
5:15 AM 64.4 °F 55.4 °F 73% 30.09 in 10.0 mi SSW 6.9 mph - N/A   Overcast
5:35 AM 64.4 °F 55.4 °F 73% 30.09 in 10.0 mi SW 6.9 mph - N/A   Overcast
5:55 AM 62.6 °F 57.2 °F 82% 30.10 in 4.0 mi SSW 4.6 mph - N/A Rain Light Rain
6:15 AM 62.6 °F 59.0 °F 88% 30.11 in 4.0 mi Calm Calm - 0.02 in Rain Light Rain
6:55 AM 60.8 °F 59.0 °F 94% 30.13 in 4.0 mi SW 3.5 mph - 0.03 in Rain Rain
7:15 AM 60.8 °F 59.0 °F 94% 30.13 in 5.0 mi South 3.5 mph - 0.01 in   Light Drizzle
7:35 AM 62.6 °F 59.0 °F 88% 30.13 in 5.0 mi SSW 5.8 mph - 0.01 in   Light Drizzle
7:55 AM 62.6 °F 59.0 °F 88% 30.13 in 3.0 mi SSW 4.6 mph - 0.01 in   Light Drizzle
8:15 AM 62.6 °F 59.0 °F 88% 30.14 in 4.0 mi SSW 8.1 mph 16.1 mph N/A   Light Drizzle
8:35 AM 62.6 °F 59.0 °F 88% 30.15 in 10.0 mi South 6.9 mph - N/A   Overcast
8:55 AM 62.6 °F 59.0 °F 88% 30.15 in 10.0 mi SW 4.6 mph - N/A   Overcast
9:15 AM 62.6 °F 59.0 °F 88% 30.16 in 10.0 mi SSW 5.8 mph - N/A   Overcast
9:35 AM 62.6 °F 59.0 °F 88% 30.15 in 3.0 mi SSW 5.8 mph - N/A Rain Rain
9:55 AM 62.6 °F 59.0 °F 88% 30.15 in 3.0 mi SW 3.5 mph - N/A   Overcast
10:15 AM 62.6 °F 59.0 °F 88% 30.16 in 7.0 mi SW 6.9 mph - N/A   Overcast
10:35 AM 62.6 °F 59.0 °F 88% 30.15 in 10.0 mi SW 5.8 mph 9.2 mph N/A   Overcast
10:55 AM 64.4 °F 60.8 °F 88% 30.13 in 10.0 mi SW 8.1 mph - N/A   Overcast
11:15 AM 64.4 °F 60.8 °F 88% 30.12 in 10.0 mi SW 8.1 mph - N/A   Overcast
11:35 AM 64.4 °F 59.0 °F 83% 30.12 in 10.0 mi SW 8.1 mph - N/A   Overcast
11:55 AM 64.4 °F 59.0 °F 83% 30.11 in 10.0 mi SW 5.8 mph - N/A   Overcast
12:15 PM 64.4 °F 59.0 °F 83% 30.10 in 10.0 mi SW 6.9 mph - N/A   Overcast
12:35 PM 64.4 °F 59.0 °F 83% 30.10 in 10.0 mi SSW 8.1 mph - N/A   Overcast
12:55 PM 64.4 °F 59.0 °F 83% 30.10 in 10.0 mi South 5.8 mph - N/A   Overcast
1:15 PM 64.4 °F 59.0 °F 83% 30.09 in 4.0 mi SW 4.6 mph - N/A Rain Rain
1:35 PM 62.6 °F 60.8 °F 94% 30.10 in 3.0 mi SW 5.8 mph - 0.02 in   Drizzle
2:15 PM 64.4 °F 60.8 °F 88% 30.09 in 7.0 mi Calm Calm - N/A   Overcast
2:35 PM 64.4 °F 60.8 °F 88% 30.08 in 7.0 mi Calm Calm - N/A   Overcast
2:55 PM 64.4 °F 60.8 °F 88% 30.09 in 7.0 mi SSW 4.6 mph - N/A Rain Light Rain
3:15 PM 64.4 °F 60.8 °F 88% 30.09 in 5.0 mi South 3.5 mph - N/A   Light Drizzle
3:35 PM 64.4 °F 60.8 °F 88% 30.09 in 10.0 mi SSW 4.6 mph - N/A   Overcast
3:55 PM 64.4 °F 60.8 °F 88% 30.08 in 2.5 mi South 3.5 mph - 0.01 in   Drizzle
4:15 PM 62.6 °F 60.8 °F 94% 30.09 in 3.0 mi SSW 3.5 mph - 0.01 in   Drizzle
4:35 PM 62.6 °F 60.8 °F 94% 30.09 in 2.5 mi Calm Calm - 0.01 in   Drizzle
4:55 PM 62.6 °F 60.8 °F 94% 30.09 in 7.0 mi Calm Calm - 0.02 in   Overcast
5:15 PM 62.6 °F 60.8 °F 94% 30.09 in 7.0 mi Calm Calm - N/A   Overcast
5:35 PM 62.6 °F 60.8 °F 94% 30.10 in 3.0 mi Calm Calm - N/A   Drizzle
5:55 PM 62.6 °F 60.8 °F 94% 30.10 in 2.5 mi Calm Calm - 0.01 in   Drizzle
6:15 PM 62.6 °F 60.8 °F 94% 30.10 in 3.0 mi Calm Calm - 0.02 in Rain Heavy Rain
6:35 PM 62.6 °F 60.8 °F 94% 30.10 in 2.5 mi Calm Calm - 0.03 in Rain Rain
6:55 PM 62.6 °F 60.8 °F 94% 30.10 in 1.2 mi Calm Calm - 0.04 in   Drizzle
7:15 PM 62.6 °F 60.8 °F 94% 30.10 in 1.2 mi Calm Calm - 0.02 in   Heavy Drizzle
7:35 PM 62.6 °F 60.8 °F 94% 30.10 in 0.8 mi Calm Calm - 0.04 in   Heavy Drizzle
7:55 PM 62.6 °F 60.8 °F 94% 30.10 in 2.0 mi Calm Calm - 0.07 in   Heavy Drizzle
8:15 PM 62.6 °F 60.8 °F 94% 30.10 in 1.8 mi Calm Calm - 0.01 in Rain Rain
8:35 PM 62.6 °F 60.8 °F 94% 30.10 in 2.0 mi Calm Calm - 0.03 in Rain Light Rain
8:55 PM 62.6 °F 60.8 °F 94% 30.10 in 4.0 mi Calm Calm - 0.03 in   Overcast
9:15 PM 62.6 °F 60.8 °F 94% 30.10 in 5.0 mi Calm Calm - 0.01 in Rain Rain
9:35 PM 62.6 °F 60.8 °F 94% 30.11 in 3.0 mi Calm Calm - 0.02 in   Drizzle
9:55 PM 62.6 °F 60.8 °F 94% 30.11 in 0.8 mi Calm Calm - 0.02 in   Overcast
10:15 PM 62.6 °F 60.8 °F 94% 30.10 in 5.0 mi Calm Calm - N/A   Overcast
10:35 PM 62.6 °F 60.8 °F 94% 30.10 in 7.0 mi Calm Calm - N/A   Overcast
10:55 PM 62.6 °F 60.8 °F 94% 30.10 in 7.0 mi SW 3.5 mph - N/A   Overcast
11:15 PM 62.6 °F 60.8 °F 94% 30.10 in 7.0 mi Calm Calm - N/A   Overcast
11:35 PM 62.6 °F 60.8 °F 94% 30.09 in 10.0 mi Calm Calm - N/A   Overcast
11:55 PM 62.6 °F 60.8 °F 94% 30.09 in 10.0 mi SW 3.5 mph - N/A   Mostly Cloudy